Temperature
17 17 17 17 17 17 17 17 17 17 17 17 17 17 17 17 17 17 18 18 18 18 18 18 18 17 17 17 17 18 18 18 18 18 18 18 18 18 18 18 18 18 18
17 17 17 17 17 17 17 17 17 17 17 17 17 17 17 17 17 17 17 17 17 17 17 17 17 17 17 17 17 17 17 17 17 17 17 17 17 17 17 17 17 17 17
17 17 17 17 17 17 17 17 17 17 17 17 17 17 17 17 17 17 17 17 17 17 17 17 17 17 17 17 17 17 17 17 17 17 17 17 17 17 17 17 17 17 17
17 17 17 17 17 17 17 17 17 17 17 17 17 17 17 17 17 17 17 17 17 17 17 17 17 17 17 17 17 17 17 17 17 17 17 17 17 17 17 17 17 17 17
17 17 17 17 17 17 17 17 17 17 17 17 17 17 17 17 17 17 17 17 17 17 17 17 17 17 17 17 17 17 17 17 17 17 17 17 17 17 17 17 17 17 17
17 17 17 17 17 17 17 17 17 17 17 17 17 17 17 17 17 17 17 17 16 16 16 16 16 16 16 16 16 16 16 16 17 16 16 16 16 16 16 16 16 16 16
17 17 17 17 17 17 17 17 16 16 16 16 16 16 16 16 16 16 16 16 16 16 16 16 16 16 16 16 16 16 16 16 16 16 16 16 16 16 16 16 16 16 16
17 17 17 17 17 17 17 16 16 16 16 16 16 16 16 16 16 16 16 16 16 16 16 16 16 16 16 16 16 16 16 16 16 16 16 16 16 16 16 16 16 16 16
17 17 17 17 17 17 16 16 16 16 16 16 16 16 16 16 16 16 16 16 16 16 16 16 16 16 16 16 16 16 16 16 16 15 15 15 15 15 15 15 16 16 15
16 17 17 16 16 16 16 16 16 16 16 16 16 16 16 16 16 16 16 16 16 16 16 16 16 16 16 15 15 15 15 15 15 15 15 15 15 15 15 15 15 15 15
16 16 16 16 16 16 16 16 16 16 16 16 16 16 16 16 16 16 15 15 16 16 16 16 16 16 15 15 15 15 15 15 15 15 15 15 15 15 15 15 15 15 15
16 16 16 16 16 16 16 16 16 16 16 16 16 16 16 16 16 15 15 15 15 15 15 15 15 15 15 15 15 15 15 15 15 15 15 15 14 14 14 14 15 15 15
16 16 16 16 16 16 16 16 16 16 16 15 15 15 15 15 15 15 15 15 15 15 15 15 15 15 15 15 15 15 15 15 15 14 14 14 14 14 14 14 14 14 14
16 16 16 16 16 16 16 16 16 16 16 15 15 15 15 15 15 15 15 15 15 15 15 15 15 15 15 15 15 15 15 14 14 14 14 14 14 14 14 14 14 14 14
16 16 16 16 16 16 16 16 16 16 15 15 15 15 15 15 15 15 15 15 15 15 15 15 15 15 15 15 14 14 14 14 14 14 14 14 14 14 14 13 14 14 14
16 16 16 16 16 16 16 16 15 15 15 15 15 15 15 15 15 15 15 15 15 15 15 14 14 14 14 14 14 14 14 14 14 14 14 14 14 13 13 13 13 13 13
16 16 16 16 16 16 16 15 15 15 15 15 15 15 15 14 14 15 15 14 14 14 14 14 14 14 14 14 14 14 14 14 14 14 14 14 14 13 13 13 13 13 13
16 16 16 16 16 16 15 15 15 15 15 15 15 14 14 14 14 14 14 14 14 14 14 14 14 14 14 14 14 14 14 13 13 13 13 13 13 13 13 13 13 13 13
16 16 16 16 16 15 15 15 15 15 15 14 14 14 14 14 14 14 14 14 14 14 14 14 14 14 14 13 13 13 13 13 13 13 13 13 13 13 13 13 13 13 13
16 16 16 16 15 15 15 15 15 15 14 14 14 14 14 14 14 14 14 14 14 14 14 14 13 13 13 13 13 13 13 13 13 13 13 13 13 13 13 13 13 13 13
16 16 16 16 15 15 15 15 15 14 14 14 14 14 14 14 14 14 14 13 13 13 13 13 13 13 13 13 13 13 13 13 13 13 12 12 12 12 12 12 12 12 12
16 16 16 15 15 15 15 15 15 14 14 14 14 14 14 14 14 13 13 13 13 13 13 13 13 13 13 13 13 13 12 12 12 12 12 12 12 12 12 12 12 12 12
16 16 16 15 15 15 15 15 14 14 14 14 14 14 13 13 13 13 13 13 13 13 13 13 13 13 12 12 12 12 12 12 12 12 12 12 12 12 12 12 12 12 12
16 16 16 15 15 15 15 15 14 14 14 14 13 13 13 13 13 13 13 12 12 12 12 12 12 12 12 12 12 12 12 11 11 11 11 11 11 11 11 11 11 11 11
16 16 16 15 15 15 15 14 14 14 14 13 13 13 13 13 13 12 12 12 12 12 12 12 12 12 12 12 11 11 11 11 11 11 11 11 11 11 11 11 11 11 11
16 16 15 15 15 15 14 14 14 14 14 13 13 13 13 13 12 12 12 12 12 12 12 12 12 11 11 11 11 11 11 11 11 11 10 10 10 10 10 10 11 11 11
Wind_Speed
4 5 6 8 9 10 11 11 11 12 12 12 12 12 12 11 12 12 12 12 11 11 11 11 10 10 10 11 11 11 11 12 12 12 12 11 10 10 10 9 9 8 9
2 4 5 8 10 10 11 11 11 12 12 12 12 12 12 12 11 11 11 11 12 12 11 11 11 11 10 11 11 11 12 12 12 13 13 12 11 11 11 11 10 8 10
2 4 6 8 9 10 11 11 12 12 12 12 12 12 11 11 11 11 11 12 12 12 12 11 11 11 11 11 11 11 12 12 13 13 12 10 10 11 11 11 11 11 10
2 4 6 9 9 10 10 11 11 12 12 12 12 12 12 11 11 11 12 12 12 12 12 12 12 12 11 11 11 11 12 12 13 12 10 9 8 10 11 11 11 10 10
4 5 6 9 9 10 10 11 11 12 12 12 12 13 12 12 12 12 12 12 12 12 12 12 12 11 11 11 11 11 12 12 13 12 10 9 8 10 11 10 10 10 10
4 6 6 8 8 9 10 11 12 11 12 12 12 13 13 13 13 13 13 12 13 13 12 12 11 11 11 11 11 11 12 12 11 10 9 9 8 10 11 10 10 10 10
4 5 6 8 9 9 10 11 11 11 12 12 12 12 13 13 13 13 13 13 13 12 13 13 12 12 11 10 11 11 12 12 11 9 9 8 9 10 10 10 10 10 10
3 5 6 8 9 9 10 10 11 11 11 11 12 13 13 13 13 14 14 14 13 13 13 12 12 12 11 11 11 11 11 11 10 9 8 8 10 11 11 10 10 9 10
5 5 7 8 8 8 9 10 10 11 11 11 12 12 13 13 13 13 13 13 13 13 13 13 13 13 13 12 11 11 12 12 10 8 8 8 10 11 11 11 10 10 9
5 5 6 7 8 7 7 8 10 11 11 11 11 12 12 12 12 12 12 12 12 12 12 12 12 12 12 12 12 12 12 11 9 8 7 8 10 10 11 10 9 9 8
4 4 4 5 6 6 6 8 9 10 10 10 10 11 11 10 10 10 11 12 13 13 13 12 12 12 11 11 12 12 10 8 8 7 6 8 9 10 10 9 8 8 8
2 2 3 4 5 6 6 7 8 9 10 10 10 10 10 9 9 9 11 12 13 13 12 13 13 12 11 10 10 10 8 8 7 6 7 9 9 9 10 10 10 10 10
1 1 2 3 4 6 5 6 7 7 8 9 10 10 9 9 9 9 9 10 11 11 10 11 11 10 9 8 8 8 8 8 7 7 7 8 9 9 10 10 10 10 10
2 1 2 3 4 5 6 5 6 6 6 6 8 9 8 6 6 6 6 8 8 8 8 8 7 8 9 9 8 8 8 7 7 7 7 8 8 8 9 10 10 10 10
2 1 2 2 3 4 5 4 5 5 5 6 7 7 7 5 4 5 5 7 7 8 6 6 6 6 6 7 7 7 6 7 7 8 8 9 9 9 9 9 10 10 10
2 2 2 2 3 4 4 3 4 4 5 6 6 7 7 6 5 4 4 5 6 6 6 6 5 5 4 5 6 6 6 6 7 8 8 10 11 10 9 9 9 9 10
3 2 2 3 4 4 4 3 4 5 6 5 5 7 7 6 6 5 4 4 5 6 6 6 6 5 5 5 5 5 5 6 7 7 8 9 9 11 11 10 10 10 9
3 3 2 3 4 4 4 4 4 5 6 5 5 6 6 7 6 5 4 4 5 6 5 4 4 4 5 4 4 4 4 5 6 7 8 9 9 9 10 11 11 10 10
4 4 3 3 4 3 4 4 5 5 5 5 6 6 6 6 6 6 4 4 5 5 4 4 4 3 3 4 3 3 4 4 4 5 6 8 8 9 9 10 10 10 10
4 4 4 4 3 3 4 4 4 4 4 5 5 5 5 5 6 6 5 5 5 4 4 4 3 4 3 2 3 4 3 3 4 4 4 6 7 8 8 8 9 8 9
4 4 3 4 3 3 2 2 2 2 2 2 4 5 5 5 5 5 4 4 4 4 3 3 3 4 4 3 3 3 4 4 4 4 4 4 5 6 7 7 7 7 7
4 4 4 4 4 3 2 2 2 2 1 1 3 4 5 5 5 4 4 3 3 3 4 4 3 2 2 3 2 2 3 4 4 4 4 4 4 4 5 6 6 6 7
5 5 5 4 4 3 3 3 3 3 3 2 2 2 3 3 4 4 3 3 3 2 2 2 2 3 1 2 2 2 2 1 3 3 3 4 4 3 3 4 5 6 6
6 5 4 4 4 3 4 4 5 3 2 1 0 1 2 3 3 3 3 3 2 2 1 1 2 1 2 1 1 2 1 2 0 2 3 3 3 3 3 3 4 5 5
5 5 4 4 4 3 4 5 5 3 1 0 1 1 2 2 3 2 2 2 2 1 1 1 1 2 1 1 1 0 1 2 1 1 2 3 3 3 2 2 3 4 5
4 4 5 5 4 3 4 4 5 4 3 2 1 0 1 1 2 3 2 2 1 1 0 0 1 1 1 1 1 1 1 0 1 1 1 2 3 3 3 2 2 3 4
Wind_Direction
317 323 3 42 52 56 58 62 66 70 71 70 68 67 66 64 64 65 68 71 73 75 85 88 87 84 81 79 77 75 73 74 74 71 68 69 71 72 74 78 78 73 79
292 341 27 48 54 59 62 66 69 69 71 72 69 67 65 63 64 66 68 70 72 74 80 84 83 80 79 78 77 75 73 72 72 70 66 63 66 69 70 73 75 78 79
18 13 45 56 59 60 62 67 69 69 69 70 68 64 62 61 63 66 68 71 73 74 77 79 78 79 78 77 76 73 72 73 74 70 64 54 60 69 70 72 73 75 77
44 33 54 62 63 63 65 69 69 70 70 68 66 62 60 60 61 63 66 71 74 75 75 76 77 78 77 75 74 74 74 76 73 68 57 51 55 67 68 70 71 72 73
48 44 58 67 66 67 67 68 69 70 69 66 64 62 60 61 61 60 65 68 71 73 74 75 75 75 73 73 74 76 76 77 73 65 56 50 53 65 66 70 72 71 69
51 49 61 67 67 70 68 66 66 67 68 67 64 64 64 64 62 61 62 64 65 67 70 73 74 75 73 73 74 78 78 78 72 62 54 50 54 67 68 69 70 70 68
59 49 60 65 68 68 67 67 67 66 67 68 65 64 63 62 62 62 60 63 64 65 68 69 70 71 70 74 75 77 78 77 71 60 54 52 59 66 67 68 69 70 69
74 54 58 63 66 66 66 67 67 66 67 66 65 64 61 61 62 62 63 64 65 66 70 69 69 68 66 67 73 75 78 76 70 61 55 54 61 63 63 63 64 67 66
61 55 44 49 54 61 65 67 66 66 66 66 66 65 61 58 59 60 61 62 66 66 66 66 66 65 64 65 71 72 74 73 62 54 54 51 59 61 61 60 60 62 62
53 45 40 41 46 47 54 68 68 68 66 63 62 61 59 54 52 55 55 59 62 63 64 65 65 63 63 65 68 68 67 63 53 49 45 55 59 58 58 57 57 58 61
51 34 36 33 34 40 58 66 65 63 59 56 53 54 51 43 44 48 55 59 60 61 62 62 62 62 61 61 63 63 61 56 51 46 43 59 60 59 55 52 49 48 64
57 19 30 28 29 38 58 60 56 56 53 50 45 43 42 42 44 49 53 56 57 57 58 59 60 56 55 53 53 55 52 50 48 41 45 57 60 60 56 52 52 55 67
160 69 51 40 44 51 58 62 54 52 49 46 44 43 46 45 42 42 43 43 44 46 47 49 50 48 51 52 52 51 49 48 41 34 37 49 55 57 57 54 54 55 58
136 124 80 59 54 55 62 62 60 54 46 39 39 46 51 49 43 41 45 42 42 42 43 46 49 46 49 49 54 55 50 47 39 31 31 41 48 51 52 54 56 58 58
141 137 117 86 72 63 64 59 61 54 50 44 43 46 53 57 50 47 46 45 44 44 45 44 49 47 43 45 51 55 47 41 37 33 26 35 41 46 46 49 53 56 59
158 149 120 103 86 79 72 67 64 59 56 54 48 47 51 57 58 57 50 46 40 40 45 50 52 51 44 46 45 47 43 37 34 35 33 33 38 41 46 49 51 55 57
157 139 128 124 92 85 78 72 71 65 65 57 50 51 54 57 61 63 55 44 35 40 50 57 52 53 46 44 38 35 44 40 38 37 39 38 36 38 44 47 49 51 51
129 124 127 123 104 95 83 75 72 70 69 60 59 56 54 57 62 65 57 44 36 47 53 57 50 49 41 36 31 24 34 37 35 37 41 40 37 34 36 41 45 47 45
138 137 133 116 112 108 91 79 73 70 64 60 61 60 56 56 64 70 64 49 46 52 47 54 53 56 51 35 36 31 26 29 29 40 39 38 37 36 33 34 37 36 37
130 125 128 116 109 106 92 77 66 59 50 52 54 58 60 59 62 69 68 54 54 57 46 46 58 46 48 33 46 37 21 19 30 36 34 36 34 33 31 30 28 24 27
121 121 130 128 124 120 113 109 95 76 47 41 43 52 58 61 61 68 68 60 57 59 57 53 61 55 35 25 46 25 13 22 33 31 32 33 30 25 30 29 25 20 15
154 153 151 155 150 148 145 136 130 126 91 69 38 41 48 59 61 69 71 69 64 66 57 55 63 67 40 32 53 55 10 358 11 22 24 34 25 25 28 22 18 16 15
172 174 174 173 163 154 129 106 90 68 54 41 27 20 18 42 57 61 69 74 72 80 75 57 74 86 68 14 43 87 95 286 323 346 12 24 18 21 10 11 12 9 9
189 177 169 161 154 150 141 136 133 131 136 208 232 329 10 27 39 52 66 74 80 79 82 67 77 66 100 46 7 31 110 157 133 328 339 3 8 10 357 360 0 359 0
179 171 167 159 154 150 147 152 144 133 144 121 69 50 19 14 21 32 58 75 74 79 90 78 79 74 88 99 71 13 41 40 70 168 302 327 345 344 341 340 351 354 353
168 165 162 162 165 160 154 153 152 151 148 131 99 57 346 347 0 18 43 61 54 51 38 118 125 113 99 93 86 95 117 137 238 175 229 299 312 315 330 339 351 346 349
Height
1517 1516 1516 1515 1514 1513 1513 1512 1511 1511 1511 1510 1510 1510 1510 1509 1509 1508 1508 1507 1506 1506 1506 1507 1508 1509 1510 1510 1510 1510 1510 1510 1510 1509 1509 1509 1510 1510 1509 1510 1510 1510 1511
1518 1518 1517 1516 1515 1515 1514 1513 1513 1512 1512 1512 1512 1511 1511 1511 1510 1510 1509 1509 1508 1508 1508 1509 1509 1510 1510 1511 1511 1511 1511 1511 1511 1511 1511 1511 1511 1511 1511 1510 1511 1511 1512
1519 1519 1518 1518 1517 1516 1516 1515 1515 1514 1514 1514 1513 1513 1512 1512 1512 1511 1511 1510 1510 1510 1510 1510 1511 1511 1511 1512 1512 1512 1512 1512 1512 1512 1512 1512 1512 1512 1512 1512 1512 1512 1513
1520 1520 1520 1519 1519 1518 1517 1517 1516 1516 1516 1516 1515 1514 1514 1513 1513 1512 1512 1512 1511 1511 1511 1511 1512 1512 1512 1513 1513 1513 1513 1513 1513 1513 1513 1513 1513 1513 1513 1513 1513 1514 1514
1522 1522 1521 1521 1520 1520 1519 1518 1518 1518 1517 1517 1517 1516 1515 1515 1514 1514 1513 1513 1512 1512 1512 1512 1513 1513 1513 1514 1514 1514 1514 1514 1514 1514 1514 1514 1514 1515 1515 1515 1515 1515 1515
1523 1523 1523 1522 1521 1521 1521 1520 1520 1519 1519 1519 1518 1518 1517 1516 1516 1515 1515 1514 1513 1513 1513 1513 1514 1514 1514 1514 1515 1515 1515 1515 1515 1515 1515 1515 1515 1515 1515 1515 1515 1515 1515
1524 1524 1524 1523 1523 1522 1522 1522 1521 1521 1521 1520 1520 1519 1519 1518 1517 1517 1516 1515 1514 1514 1514 1514 1515 1515 1515 1515 1516 1516 1516 1516 1516 1516 1516 1516 1516 1516 1516 1516 1516 1516 1516
1526 1525 1525 1525 1524 1524 1523 1523 1523 1523 1522 1522 1522 1521 1520 1520 1519 1518 1518 1517 1516 1515 1515 1516 1517 1517 1517 1517 1517 1517 1517 1517 1517 1517 1517 1517 1517 1517 1517 1517 1516 1516 1516
1527 1527 1526 1526 1525 1525 1524 1524 1524 1524 1524 1523 1523 1523 1522 1522 1521 1521 1520 1519 1519 1518 1518 1518 1518 1518 1518 1518 1518 1518 1518 1518 1518 1518 1518 1518 1518 1518 1517 1517 1517 1516 1516
1528 1528 1528 1527 1526 1525 1525 1525 1525 1525 1525 1525 1525 1524 1524 1523 1523 1523 1522 1521 1521 1521 1520 1520 1520 1520 1519 1519 1520 1519 1519 1519 1519 1519 1519 1519 1519 1518 1518 1517 1517 1516 1515
1529 1529 1529 1528 1526 1525 1524 1525 1526 1526 1526 1526 1526 1526 1526 1525 1525 1524 1524 1523 1523 1522 1522 1522 1522 1521 1521 1521 1521 1521 1521 1520 1520 1520 1520 1520 1520 1519 1518 1517 1517 1514 1513
1530 1530 1530 1529 1526 1523 1522 1525 1526 1528 1528 1528 1528 1527 1527 1527 1526 1526 1525 1525 1524 1524 1524 1524 1523 1523 1523 1523 1522 1522 1522 1522 1521 1521 1521 1520 1520 1519 1519 1518 1517 1515 1513
1531 1531 1531 1530 1528 1526 1525 1526 1528 1529 1529 1529 1529 1529 1529 1528 1528 1527 1527 1526 1526 1526 1525 1525 1525 1524 1524 1524 1524 1523 1523 1523 1522 1522 1522 1521 1521 1520 1519 1519 1518 1516 1516
1533 1533 1532 1532 1530 1529 1529 1529 1530 1531 1531 1531 1531 1531 1530 1530 1529 1529 1528 1528 1527 1527 1526 1526 1526 1525 1525 1525 1525 1524 1524 1524 1523 1523 1522 1522 1521 1521 1520 1520 1519 1518 1518
1533 1534 1533 1533 1533 1532 1532 1532 1532 1532 1532 1532 1532 1532 1532 1531 1531 1530 1530 1529 1528 1528 1527 1527 1527 1526 1526 1526 1525 1525 1525 1524 1524 1524 1523 1522 1522 1521 1521 1521 1520 1519 1519
1534 1534 1535 1535 1535 1535 1534 1534 1534 1534 1534 1534 1534 1533 1533 1533 1532 1532 1531 1530 1530 1529 1529 1528 1528 1527 1527 1526 1526 1526 1525 1525 1524 1524 1524 1523 1522 1522 1522 1521 1521 1521 1520
1535 1535 1535 1536 1536 1536 1536 1536 1536 1536 1535 1535 1535 1535 1534 1534 1533 1533 1532 1531 1531 1530 1530 1529 1529 1528 1528 1527 1527 1526 1526 1525 1525 1524 1524 1523 1523 1522 1522 1522 1521 1521 1521
1535 1536 1536 1536 1537 1537 1537 1537 1537 1537 1536 1536 1536 1535 1535 1535 1534 1533 1533 1532 1532 1531 1530 1529 1529 1529 1528 1528 1527 1526 1526 1526 1525 1525 1524 1523 1523 1523 1522 1522 1521 1521 1521
1535 1536 1536 1537 1537 1537 1538 1538 1538 1538 1537 1537 1537 1536 1536 1535 1534 1534 1533 1533 1532 1531 1530 1530 1529 1529 1528 1528 1527 1527 1526 1526 1525 1525 1524 1524 1523 1523 1522 1522 1521 1521 1521
1535 1536 1537 1537 1537 1538 1538 1538 1538 1538 1538 1538 1537 1537 1536 1535 1535 1534 1533 1533 1532 1532 1531 1530 1529 1529 1529 1528 1527 1527 1527 1526 1526 1525 1524 1524 1523 1523 1522 1522 1521 1521 1520
1534 1535 1536 1537 1537 1538 1538 1538 1538 1538 1538 1538 1537 1537 1536 1536 1535 1534 1534 1533 1533 1532 1531 1530 1530 1529 1528 1528 1527 1527 1527 1526 1526 1525 1524 1524 1523 1523 1522 1521 1521 1520 1520
1533 1534 1535 1536 1537 1537 1538 1538 1538 1538 1538 1538 1538 1537 1537 1536 1535 1535 1534 1533 1533 1532 1531 1531 1530 1529 1528 1528 1527 1526 1526 1527 1526 1525 1524 1524 1523 1522 1522 1521 1521 1520 1520
1531 1533 1534 1535 1536 1536 1537 1537 1537 1538 1538 1538 1537 1537 1536 1536 1535 1534 1534 1533 1533 1532 1531 1530 1530 1529 1529 1528 1528 1528 1527 1526 1525 1525 1524 1524 1523 1522 1522 1521 1520 1519 1519
1530 1531 1533 1534 1535 1535 1536 1536 1536 1536 1536 1536 1537 1536 1536 1536 1535 1534 1533 1533 1532 1532 1531 1530 1530 1529 1529 1528 1528 1527 1528 1527 1526 1525 1524 1523 1522 1521 1521 1520 1519 1519 1518
1528 1530 1531 1532 1534 1534 1535 1535 1535 1536 1536 1536 1536 1536 1536 1535 1534 1533 1533 1532 1532 1531 1530 1530 1529 1529 1529 1528 1528 1527 1527 1526 1525 1524 1522 1522 1521 1521 1520 1519 1518 1518 1517
1526 1528 1529 1531 1532 1533 1533 1534 1534 1535 1535 1535 1535 1535 1535 1534 1534 1533 1532 1532 1531 1530 1530 1529 1529 1528 1528 1528 1527 1527 1526 1525 1524 1523 1522 1520 1519 1519 1519 1518 1517 1516 1515